Location: ???? ?????
(37.9132°N, 22.9869°E)
Time: 22:51:20
(UTC+00:00)

ARIANE 6 FM1 Upper Stage - Visible Passes

Search period start: 13 October 2024 00:00
Search period end: 23 October 2024 00:00
Orbit: 563 x 595 km, 62.0° (Epoch: 13 October)

Date Brightness Start Highest point End Pass type
(mag) Time Alt. Az. Time Alt. Az. Time Alt. Az.
16 Oct 5.8 18:41:26 10° NNW 18:41:32 10° NNW 18:41:32 10° NNW visible
17 Oct 4.9 17:08:10 10° NNE 17:09:34 12° NNE 17:09:34 12° NNE visible
17 Oct 5.8 18:45:37 10° NW 18:45:51 11° NNW 18:45:51 11° NNW visible
18 Oct 4.5 17:11:33 10° N 17:13:58 17° NNE 17:13:58 17° NNE visible
18 Oct 5.8 18:49:55 10° NW 18:50:16 12° NW 18:50:16 12° NW visible
19 Oct 4.0 17:15:18 10° NNW 17:18:27 25° NNE 17:18:27 25° NNE visible
19 Oct 5.9 18:54:24 10° NW 18:54:45 12° NW 18:54:45 12° NW visible
20 Oct 3.3 17:19:14 10° NNW 17:23:03 39° NE 17:23:03 39° NE visible
20 Oct 6.0 18:59:11 10° WNW 18:59:22 11° WNW 18:59:22 11° WNW visible
21 Oct 2.6 17:23:16 10° NNW 17:27:37 65° NE 17:27:48 64° ENE visible
22 Oct 2.8 17:27:26 10° NW 17:31:48 76° WSW 17:32:45 53° SSE visible
